Wind_Speed
24 24 25 25 25 26 27 28 28 27 28 29 28 27 28 28 29 31 31 31 31 30 27 25 25 26 26 25 25 26 26 25 23 22 22 22 21 19 17 16 16 15 14 14 14 14 13 11 11 10 10 10 11 11 11 10 9 9 8 8 8 9 9
26 26 27 27 27 28 29 30 30 29 29 28 26 27 27 27 28 30 30 29 30 30 27 26 27 27 26 26 27 28 27 26 24 23 23 23 22 20 18 17 17 16 16 16 15 15 15 12 11 11 10 11 11 11 11 11 10 10 10 9 9 9 10
28 29 29 29 29 29 30 30 31 31 30 27 24 25 24 23 25 26 26 26 28 28 26 27 27 26 24 25 27 28 27 26 25 24 24 23 21 20 19 18 17 17 17 17 16 17 17 14 12 12 11 11 11 11 11 11 11 10 10 10 10 10 11
29 29 30 30 30 30 30 29 29 30 30 26 22 21 19 18 20 20 23 27 29 28 25 26 27 26 24 23 25 27 26 26 26 25 23 22 20 20 20 18 17 18 17 17 18 18 17 16 14 12 12 11 12 12 12 12 12 11 11 12 11 11 12
30 30 30 31 32 31 30 29 28 28 28 25 20 17 16 15 16 17 22 26 28 26 23 25 26 26 24 23 24 26 27 26 25 24 22 21 21 21 20 18 18 18 18 18 18 18 17 16 14 13 12 12 13 12 11 12 13 12 13 13 13 12 13
32 32 32 32 32 31 30 28 27 27 25 22 17 13 14 16 16 16 19 22 23 22 23 25 26 25 24 24 25 26 27 26 24 23 22 21 21 20 20 19 19 19 19 19 18 17 17 16 15 14 13 13 13 12 12 13 13 13 14 14 14 13 13
33 32 32 32 32 31 30 27 25 24 23 21 18 14 14 17 18 19 18 19 20 21 24 25 25 25 25 25 25 25 27 28 27 25 23 22 22 21 21 20 20 20 20 20 19 18 18 16 16 15 14 14 13 13 13 14 14 14 14 14 14 14 14
29 29 30 31 30 29 26 23 22 22 21 20 18 15 15 16 18 20 19 19 20 22 24 23 24 26 26 27 26 26 29 29 28 26 24 23 23 22 21 20 20 21 21 21 20 18 18 17 17 17 15 14 14 14 14 14 15 15 14 14 15 15 15
22 24 26 27 26 24 21 20 20 20 19 17 14 13 14 14 15 17 19 20 20 22 22 22 24 26 27 28 27 26 28 27 25 24 23 24 24 23 22 21 21 22 22 22 21 20 19 19 19 18 16 15 14 14 14 15 15 15 15 15 16 17 16
19 21 22 23 22 20 18 18 19 19 17 15 12 12 13 14 14 15 18 20 20 21 22 23 25 26 27 28 27 26 26 26 25 24 24 25 25 23 23 22 22 23 23 23 22 21 21 20 19 18 17 15 15 15 15 16 16 16 16 16 16 17 17
19 20 21 20 19 18 17 17 18 18 17 15 13 13 13 13 14 16 18 20 21 22 22 24 25 26 28 28 28 27 26 27 27 25 26 27 25 23 23 23 23 23 24 24 24 22 22 22 20 18 17 16 16 17 17 17 17 17 17 17 16 18 19
17 19 19 18 17 17 17 17 17 17 17 16 15 14 14 14 14 15 18 20 22 23 24 25 26 27 29 29 28 27 26 27 28 28 29 28 25 24 24 24 24 24 25 25 25 23 22 22 19 17 18 17 17 18 18 17 17 18 18 17 17 18 19
16 17 17 18 17 17 18 18 18 18 18 17 16 16 15 14 15 15 16 19 21 22 24 25 26 28 30 30 29 28 27 28 29 30 30 28 27 26 25 25 27 26 25 25 24 22 20 19 17 17 19 19 18 19 19 18 18 17 16 17 17 17 18
16 16 16 17 17 16 17 19 20 19 18 17 17 18 16 15 16 15 15 17 19 20 21 23 26 28 30 30 29 28 29 30 31 31 29 28 28 27 26 27 28 26 25 24 23 21 18 18 18 19 20 20 20 20 19 19 19 18 18 17 17 17 18
16 16 16 17 17 17 16 18 20 21 20 17 17 18 18 18 18 17 16 16 19 20 20 23 26 28 29 29 29 28 29 31 32 31 29 29 28 27 27 28 27 26 25 24 24 21 18 19 20 20 20 21 21 21 20 20 19 20 20 18 17 17 17
15 15 16 17 18 18 18 18 19 20 21 20 18 17 19 20 19 18 17 17 19 22 22 23 26 29 29 29 29 29 30 31 31 31 31 30 29 27 28 28 26 26 25 25 25 22 20 20 20 21 21 22 22 22 22 22 21 21 20 18 17 18 18
14 14 14 15 17 19 20 20 20 21 21 22 21 19 21 22 21 20 18 17 19 23 24 24 26 29 30 29 29 30 31 32 32 31 31 30 28 28 29 28 27 26 26 26 24 22 21 21 20 21 21 22 23 24 23 23 22 21 20 19 17 17 19
14 14 15 15 15 17 19 20 22 22 21 21 20 19 21 23 22 21 19 18 19 22 25 26 27 29 31 30 29 30 31 31 31 31 31 30 30 28 27 26 24 25 27 26 23 22 21 21 21 22 22 23 24 24 24 23 22 21 21 19 18 18 19
17 16 16 16 16 15 16 17 19 20 20 19 17 18 22 24 23 21 20 20 21 21 23 26 28 29 31 32 31 31 31 31 30 30 30 31 30 26 24 24 24 26 27 24 23 23 22 22 22 23 24 24 24 25 24 23 23 22 22 20 19 19 20
20 19 18 18 17 17 16 16 16 17 19 19 18 20 23 24 23 22 23 23 23 21 21 25 28 29 32 33 33 32 32 31 29 29 29 30 29 26 26 26 26 28 27 24 24 25 24 24 24 24 25 25 25 26 25 24 24 23 23 22 20 20 21
22 22 21 20 19 19 18 17 17 16 17 19 20 22 24 25 25 25 25 26 25 23 24 27 28 28 31 33 33 34 33 30 27 28 30 30 27 27 29 29 27 28 27 25 26 27 27 27 26 25 25 25 26 27 26 25 25 25 23 23 22 21 21
23 23 22 21 20 20 20 20 19 19 18 18 20 22 24 26 26 27 27 28 27 25 26 28 27 27 29 30 32 34 32 29 28 29 30 28 27 28 30 30 29 29 27 26 26 27 27 27 26 25 25 25 25 26 25 25 26 25 24 24 23 22 22
22 23 22 22 21 21 21 21 22 22 22 21 20 20 23 26 28 29 30 30 28 27 27 27 26 26 28 29 31 34 34 32 30 30 28 27 28 29 29 28 29 29 27 25 27 27 26 25 24 24 25 24 24 25 24 24 25 25 24 24 24 24 25
21 22 23 23 23 23 23 23 23 24 24 24 23 21 21 23 27 30 32 31 31 29 28 28 26 25 28 30 31 35 38 35 31 29 29 29 29 29 28 28 30 30 27 27 28 27 26 24 23 24 24 23 23 24 23 24 25 25 23 25 25 26 27
22 23 24 25 26 26 26 25 25 25 25 24 24 23 21 22 24 28 32 33 33 31 30 29 27 27 30 32 34 37 40 37 33 32 32 30 29 28 28 29 30 30 28 27 27 26 25 24 23 24 24 24 23 23 23 24 25 24 23 25 25 24 27
25 26 26 27 28 28 29 28 27 27 26 25 25 24 23 22 22 25 30 32 33 33 32 30 29 29 32 33 35 39 40 36 34 35 33 30 29 28 28 29 30 29 29 28 28 27 26 25 25 25 25 25 25 24 24 23 24 23 22 23 24 23 24
28 29 29 30 31 31 31 30 30 29 28 27 26 24 23 22 22 23 27 31 32 34 34 32 31 31 33 34 35 39 40 37 35 35 33 31 29 29 28 29 30 29 29 29 29 28 27 27 26 26 27 27 27 26 25 24 24 24 22 22 24 23 21
30 31 31 31 31 31 31 31 31 30 28 28 27 25 23 23 23 23 26 29 32 34 34 33 33 34 35 35 36 40 41 37 34 33 33 32 31 30 30 31 32 31 30 31 30 29 28 28 28 28 28 28 28 27 26 26 26 26 25 24 25 23 22
29 30 30 30 30 30 29 29 29 29 28 26 25 25 24 23 23 23 26 30 33 35 34 34 35 36 36 36 37 40 41 37 34 33 32 32 32 32 32 33 32 30 28 29 30 29 28 28 28 28 29 28 28 28 28 28 28 28 28 27 26 24 23
26 27 28 28 28 27 26 25 26 26 26 25 25 25 25 24 23 23 26 30 34 35 34 34 36 36 36 37 38 40 40 37 35 34 33 33 35 35 33 32 31 29 26 27 29 28 28 28 27 28 28 28 28 28 28 29 29 29 29 28 27 26 25
22 23 24 25 24 24 24 22 21 21 23 24 23 24 24 23 23 23 25 29 33 35 35 35 36 37 37 38 39 39 38 36 35 35 33 35 38 37 34 32 31 30 28 28 29 28 27 27 27 27 27 26 26 26 26 28 28 29 29 29 28 28 26
20 20 21 22 22 21 20 20 19 18 19 20 20 21 21 21 21 21 23 26 31 35 35 35 37 37 38 39 39 38 37 35 35 36 35 37 40 39 36 34 34 31 30 31 30 27 26 26 26 25 25 24 24 24 25 26 27 28 29 29 28 27 26
19 18 19 21 21 20 18 18 18 17 17 16 15 15 15 15 16 18 21 23 27 32 34 35 37 37 38 39 39 37 36 34 35 36 36 38 41 40 35 34 33 31 30 30 28 25 25 25 24 24 24 23 23 23 23 24 26 27 28 28 27 27 27
19 18 19 20 21 22 21 20 19 19 18 17 14 12 11 10 9 11 15 20 24 29 33 34 35 36 38 39 38 39 39 37 35 36 36 36 38 38 35 34 34 33 31 29 26 24 23 22 22 22 22 22 22 22 22 22 23 25 25 25 25 26 27
20 20 20 20 21 22 23 24 23 22 20 19 17 14 12 10 9 8 8 11 15 22 28 32 34 36 38 38 38 39 39 35 34 36 37 36 35 34 34 34 35 35 33 30 27 25 25 24 23 21 20 20 21 22 22 22 22 23 24 24 24 25 26
20 20 21 21 21 21 22 23 23 23 21 19 18 16 14 12 12 11 10 9 9 11 16 19 21 25 31 37 38 35 32 33 35 37 36 36 36 36 36 36 36 35 33 30 29 28 27 27 26 24 23 23 24 24 24 23 22 23 23 24 25 26 27
20 20 20 21 21 21 21 21 21 22 21 19 17 16 15 13 12 11 10 9 8 9 10 11 12 14 24 35 37 32 30 32 34 34 34 34 36 38 39 39 38 35 31 29 29 28 28 27 27 26 25 25 26 26 26 26 26 26 25 26 27 27 28
Wind_Direction
267 271 274 278 286 292 294 292 289 286 284 284 283 281 278 272 263 254 250 247 241 237 234 232 234 235 232 230 229 226 223 223 223 222 222 222 225 226 222 223 226 224 225 222 220 226 228 227 230 229 222 214 206 202 197 195 202 208 207 204 200 196 197
272 275 278 283 292 297 299 298 295 291 289 289 288 285 280 273 264 256 251 247 240 235 233 230 232 235 231 229 228 224 222 223 222 221 223 222 223 223 218 218 223 224 224 224 220 224 227 226 230 231 225 217 210 206 203 198 201 208 207 202 201 199 199
277 277 279 285 293 298 301 301 298 295 294 293 292 290 284 272 266 256 240 237 238 237 234 229 232 235 232 234 230 222 221 226 224 220 220 220 222 225 220 216 221 225 225 224 221 223 224 220 223 229 228 220 214 213 208 201 203 208 209 205 204 202 199
280 280 280 285 291 298 303 303 300 297 295 294 293 294 290 274 269 254 230 232 239 239 236 232 233 232 231 234 228 221 223 227 226 222 219 218 220 224 222 218 220 225 226 224 222 223 223 220 220 225 226 220 216 219 213 205 205 207 209 211 210 205 199
282 282 282 285 289 296 303 303 300 295 290 290 292 297 297 283 272 253 235 238 242 239 236 235 234 231 228 226 225 225 226 224 223 224 223 222 223 224 222 218 220 224 224 225 224 223 223 222 221 223 224 221 222 225 220 212 212 209 209 212 212 207 202
282 283 284 286 288 292 299 300 296 290 287 288 290 292 291 283 274 260 244 243 244 240 238 238 234 230 226 223 225 228 225 220 220 223 225 226 227 226 222 218 220 224 224 226 226 222 221 220 221 222 220 221 225 227 223 219 218 214 212 213 211 207 207
281 284 284 285 287 289 293 295 290 285 285 287 288 284 279 276 272 267 256 247 244 242 241 240 234 228 225 224 224 224 221 218 218 218 220 224 226 226 223 220 220 223 224 225 223 218 218 219 219 221 218 217 221 223 221 221 222 219 216 214 211 208 211
284 286 285 285 286 287 289 287 280 279 284 288 289 285 282 280 269 262 259 251 246 243 241 238 233 229 226 224 223 222 221 219 220 219 217 221 226 228 228 225 223 224 225 225 222 216 216 218 219 220 218 217 220 221 222 223 225 224 218 215 214 212 214
294 294 290 286 285 284 283 279 272 273 280 286 290 287 287 286 273 260 255 252 246 242 238 236 235 231 228 226 225 226 224 221 221 222 221 222 226 228 229 227 223 225 226 226 222 216 215 217 219 221 219 218 222 225 225 226 228 229 225 220 219 218 218
307 307 303 294 286 281 276 271 268 271 275 281 288 290 287 285 281 270 260 254 249 241 235 234 238 235 230 228 228 228 226 221 220 223 224 226 227 228 230 229 225 225 225 226 223 217 216 218 218 221 221 219 223 226 226 227 229 231 230 227 224 222 222
312 316 316 305 289 279 272 264 263 266 270 277 285 292 292 289 286 278 265 255 247 241 237 236 238 236 230 227 227 227 225 221 219 221 225 228 226 227 231 231 229 226 225 226 224 219 220 220 216 218 223 221 223 228 228 228 229 230 230 229 227 226 225
317 319 322 315 296 278 269 264 261 261 264 273 281 287 291 294 293 281 265 255 246 240 237 237 238 236 228 223 224 226 223 220 219 220 225 227 225 226 229 231 230 229 227 226 223 220 223 223 216 216 223 225 226 230 232 232 231 231 230 230 231 231 230
317 317 318 317 305 285 271 263 259 259 262 267 274 280 285 292 296 288 270 259 251 243 237 235 237 235 228 222 221 222 221 221 224 225 224 225 225 226 228 230 231 231 230 230 227 222 223 226 223 222 225 228 229 233 236 236 234 233 233 232 233 233 232
313 313 310 308 305 294 276 262 256 257 262 267 270 273 279 286 291 289 277 262 252 245 238 235 233 231 229 224 220 219 219 222 228 228 226 225 225 225 226 229 231 231 232 235 233 227 224 228 231 229 228 229 231 233 237 238 237 237 238 236 235 236 234
311 308 304 299 298 294 283 270 261 257 258 264 268 270 275 282 285 284 279 266 254 247 244 238 231 227 226 224 219 218 220 224 229 232 231 227 223 223 225 227 230 230 230 233 233 229 227 228 230 230 229 230 232 233 235 238 238 239 240 234 232 236 236
318 311 304 298 293 290 284 279 274 267 260 259 263 269 274 279 282 280 277 269 256 248 246 241 233 227 225 222 218 218 222 226 230 233 233 229 222 221 225 227 228 229 230 231 230 229 229 228 228 229 228 228 231 233 233 234 234 236 239 235 230 234 236
329 325 318 307 298 291 284 279 277 277 272 261 258 267 275 277 277 274 273 270 258 248 244 241 235 230 227 223 219 219 222 226 229 232 234 233 228 223 224 224 225 227 228 228 228 229 230 229 226 227 228 228 229 231 232 233 232 232 235 235 230 232 235
329 330 329 323 313 301 290 283 277 279 282 273 261 266 275 275 273 270 269 268 258 246 240 239 237 233 229 225 221 220 223 225 227 229 232 236 234 228 225 223 224 229 230 228 230 232 231 230 226 225 227 227 227 230 231 231 232 230 232 233 232 233 236
322 324 326 325 323 316 305 294 282 277 283 285 276 272 273 270 267 265 264 262 257 249 241 239 239 236 231 227 223 222 223 225 225 226 229 234 234 232 232 230 230 235 235 231 232 233 232 231 227 224 225 225 227 230 230 229 231 230 230 231 230 232 236
314 316 317 318 319 319 317 311 298 282 277 280 279 276 272 268 263 259 257 258 256 251 243 240 240 238 233 229 226 224 224 224 224 224 229 233 231 230 233 232 231 234 235 233 235 235 233 231 228 225 224 223 225 229 229 227 229 230 229 230 228 230 235
310 310 313 314 313 312 313 314 313 303 289 280 274 270 268 266 260 255 255 257 255 247 237 234 238 239 234 231 228 225 224 223 223 226 229 231 231 231 234 233 231 233 236 236 235 236 234 231 226 223 224 225 227 229 228 226 228 229 229 230 228 228 234
309 310 312 314 312 310 308 307 309 310 307 298 285 272 265 261 258 254 252 254 256 254 241 232 234 237 234 232 230 227 224 223 226 230 232 234 237 238 238 237 236 236 237 235 235 238 239 236 231 226 225 225 226 229 229 227 229 230 229 232 230 227 231
310 311 313 314 314 312 309 306 304 304 305 305 300 289 274 263 257 254 251 250 251 254 249 239 234 233 233 233 231 228 225 223 226 231 235 239 242 242 240 237 236 236 235 231 233 238 240 238 235 233 231 226 224 227 227 227 231 231 230 235 233 227 230
311 312 313 314 314 313 311 308 305 302 301 300 300 299 288 272 261 254 252 252 250 250 251 246 237 231 230 231 230 228 227 225 226 229 233 240 243 241 238 236 234 234 232 229 230 235 237 234 232 234 237 234 231 231 229 229 233 233 232 237 235 228 230
310 310 311 312 311 311 310 309 306 303 301 299 297 297 293 283 270 258 253 252 250 250 250 247 240 232 230 230 230 230 229 225 222 225 230 238 242 238 233 232 231 231 231 230 231 233 233 232 231 232 235 237 237 236 235 234 236 235 234 237 237 233 236
309 308 308 308 307 307 307 307 306 303 301 299 296 294 292 287 278 266 256 250 249 249 248 246 240 234 231 231 229 231 232 226 221 223 227 235 240 237 231 230 229 229 229 230 231 231 230 230 231 232 233 235 236 236 237 237 239 238 237 240 240 235 238
308 307 306 305 304 304 304 303 303 302 300 298 295 293 291 287 280 270 259 250 247 248 247 243 239 235 234 233 229 229 231 226 221 224 227 231 236 236 232 230 228 226 227 228 230 231 231 231 231 231 231 232 233 234 234 234 236 237 236 240 244 240 237
306 306 305 305 304 303 303 302 301 300 298 297 295 293 291 288 281 271 261 251 244 245 246 242 237 235 235 234 231 229 230 227 221 222 226 228 231 234 233 230 227 224 223 226 229 231 231 232 232 231 231 232 232 233 234 232 232 233 233 235 243 245 242
308 307 307 306 306 304 303 301 299 299 297 295 293 292 291 288 281 270 260 251 244 243 244 240 236 235 234 234 233 229 229 229 225 222 224 226 228 231 233 232 231 227 224 225 228 231 232 233 233 232 233 233 233 233 233 233 231 232 232 233 237 242 244
312 311 310 309 307 305 303 300 297 296 295 293 291 290 289 286 280 270 259 251 245 242 241 236 233 234 232 233 234 231 228 227 225 221 222 225 226 228 230 231 232 232 230 230 231 231 231 232 233 233 233 233 232 232 232 233 232 232 232 233 234 238 241
320 316 313 313 312 310 307 302 296 290 289 291 291 289 288 285 280 272 260 251 245 242 240 235 231 231 230 231 234 232 226 224 222 220 221 224 225 226 226 228 230 229 228 231 233 231 232 232 231 232 232 230 230 229 229 231 231 231 233 233 234 237 239
330 326 322 320 320 318 314 308 302 293 288 289 290 290 288 283 278 271 261 253 246 242 240 235 230 230 230 232 234 230 224 222 222 221 221 224 225 225 224 225 228 226 224 228 231 231 231 232 231 230 230 228 228 228 228 227 228 230 232 233 233 236 238
336 337 337 333 331 330 326 321 317 311 306 303 299 297 297 288 277 269 260 253 247 243 241 236 232 230 231 233 234 228 220 218 220 220 220 224 227 227 224 223 223 223 224 227 229 229 229 231 230 229 229 227 227 228 228 228 228 229 231 232 232 232 233
341 341 345 346 343 341 340 338 335 332 331 333 329 324 324 318 298 276 262 253 247 242 238 235 232 231 231 232 231 226 218 217 221 221 219 222 226 225 222 222 222 224 225 225 225 226 228 229 227 226 226 227 226 224 223 223 226 228 228 229 230 230 230
344 344 345 348 348 347 346 345 344 343 343 344 343 341 340 338 333 320 294 275 261 247 240 237 235 232 231 230 227 225 222 221 222 221 218 217 220 220 218 220 221 221 222 222 222 224 227 227 224 221 221 223 225 224 222 221 224 227 228 228 229 231 232
345 344 344 345 346 347 347 347 346 346 345 344 342 341 340 335 334 336 333 325 303 270 253 246 239 230 226 226 223 219 218 217 217 219 220 221 221 217 214 218 222 222 222 222 223 225 228 228 225 221 218 219 222 225 225 223 223 225 225 224 225 227 230
348 345 343 343 344 346 347 347 346 345 346 345 342 338 334 330 331 338 341 335 319 294 274 257 241 215 209 217 221 218 216 219 221 222 223 225 223 217 215 220 224 224 224 226 227 228 229 230 227 223 221 220 221 224 226 224 224 224 224 225 226 228 231
Height
3146 3146 3145 3144 3143 3143 3143 3142 3141 3140 3139 3137 3137 3137 3136 3135 3135 3135 3136 3138 3140 3142 3144 3145 3146 3147 3149 3149 3150 3151 3152 3153 3154 3156 3156 3156 3157 3158 3159 3159 3160 3162 3163 3165 3166 3167 3167 3167 3168 3168 3168 3168 3168 3169 3169 3169 3170 3171 3171 3171 3171 3172 3172
3144 3144 3143 3142 3142 3142 3141 3139 3138 3137 3136 3135 3133 3133 3131 3131 3132 3132 3133 3134 3136 3139 3141 3143 3143 3144 3145 3146 3147 3148 3149 3150 3152 3153 3154 3154 3155 3155 3156 3157 3158 3160 3161 3163 3164 3165 3165 3166 3167 3166 3166 3166 3167 3167 3168 3168 3169 3169 3170 3170 3171 3171 3171
3142 3142 3141 3141 3140 3140 3139 3138 3136 3134 3134 3132 3131 3129 3128 3128 3128 3129 3130 3131 3132 3136 3138 3140 3142 3142 3143 3144 3144 3146 3147 3148 3149 3150 3150 3151 3152 3153 3154 3155 3156 3158 3159 3161 3162 3163 3164 3165 3165 3165 3165 3165 3166 3166 3166 3167 3168 3168 3169 3169 3170 3170 3171
3140 3140 3140 3139 3139 3138 3138 3136 3135 3132 3131 3130 3128 3127 3126 3126 3126 3126 3128 3129 3130 3133 3136 3137 3140 3140 3141 3142 3142 3143 3144 3145 3146 3146 3147 3148 3149 3150 3151 3152 3154 3156 3157 3159 3160 3161 3162 3163 3163 3164 3164 3165 3165 3165 3165 3166 3167 3168 3168 3168 3169 3169 3170
3138 3138 3138 3138 3137 3136 3135 3134 3133 3131 3129 3127 3126 3125 3125 3125 3125 3126 3127 3128 3129 3132 3134 3136 3137 3138 3138 3139 3140 3140 3141 3142 3143 3144 3144 3145 3146 3148 3149 3150 3152 3153 3155 3157 3158 3159 3161 3161 3162 3163 3163 3164 3164 3164 3164 3165 3166 3167 3167 3167 3167 3168 3169
3136 3136 3136 3136 3135 3134 3133 3132 3131 3129 3127 3126 3125 3125 3124 3125 3125 3125 3126 3127 3128 3130 3132 3133 3134 3135 3136 3137 3137 3138 3138 3139 3140 3141 3142 3143 3144 3145 3146 3147 3149 3151 3152 3154 3156 3157 3159 3160 3160 3161 3162 3162 3163 3163 3164 3164 3165 3165 3165 3165 3166 3167 3168
3134 3134 3134 3133 3132 3132 3131 3130 3129 3127 3126 3126 3125 3125 3124 3124 3124 3124 3125 3126 3127 3128 3129 3130 3131 3133 3133 3134 3135 3135 3135 3136 3137 3138 3139 3139 3140 3142 3143 3144 3146 3148 3150 3152 3154 3155 3157 3158 3158 3159 3160 3161 3162 3162 3163 3163 3163 3164 3164 3164 3165 3166 3166
3132 3132 3131 3130 3129 3129 3129 3128 3127 3126 3125 3124 3124 3124 3124 3123 3123 3123 3123 3124 3125 3126 3126 3127 3128 3130 3131 3131 3132 3133 3133 3134 3134 3136 3136 3136 3138 3140 3142 3143 3143 3145 3148 3150 3152 3153 3155 3156 3157 3157 3158 3159 3160 3161 3161 3162 3162 3162 3163 3163 3164 3164 3165
3130 3129 3128 3126 3126 3125 3125 3126 3125 3125 3124 3124 3123 3123 3122 3121 3121 3121 3121 3122 3123 3124 3124 3125 3125 3126 3127 3128 3129 3130 3131 3132 3133 3134 3134 3134 3135 3137 3140 3141 3141 3143 3146 3148 3149 3151 3152 3153 3154 3155 3156 3157 3158 3159 3160 3160 3160 3161 3161 3162 3162 3163 3163
3128 3127 3125 3123 3122 3122 3122 3123 3124 3123 3123 3122 3122 3122 3121 3120 3119 3119 3119 3120 3120 3121 3122 3123 3123 3124 3124 3125 3126 3126 3127 3129 3130 3132 3133 3133 3133 3135 3137 3139 3140 3142 3143 3145 3147 3148 3150 3151 3152 3153 3154 3156 3157 3157 3158 3158 3159 3159 3159 3160 3161 3161 3162
3126 3125 3123 3121 3120 3119 3119 3120 3121 3122 3122 3121 3121 3120 3120 3119 3118 3117 3117 3117 3118 3118 3119 3120 3121 3121 3122 3123 3123 3124 3125 3126 3127 3129 3131 3131 3131 3132 3135 3137 3139 3141 3142 3143 3144 3146 3147 3148 3150 3151 3152 3153 3154 3155 3155 3156 3157 3157 3157 3158 3159 3159 3160
3124 3123 3121 3120 3118 3118 3118 3118 3119 3120 3120 3120 3120 3119 3118 3118 3117 3115 3115 3115 3115 3116 3116 3117 3118 3119 3119 3120 3121 3122 3123 3124 3125 3127 3127 3128 3128 3130 3132 3134 3136 3138 3140 3141 3142 3143 3145 3147 3147 3148 3150 3151 3152 3153 3153 3154 3154 3154 3155 3156 3157 3157 3158
3122 3121 3120 3118 3117 3117 3117 3117 3117 3117 3117 3118 3118 3117 3117 3116 3115 3114 3113 3113 3113 3113 3113 3114 3115 3116 3117 3118 3118 3119 3121 3122 3123 3124 3124 3125 3126 3127 3130 3132 3133 3135 3137 3139 3140 3141 3143 3144 3145 3146 3148 3149 3150 3150 3151 3152 3152 3152 3153 3154 3155 3156 3156
3120 3119 3118 3116 3115 3115 3115 3115 3115 3115 3115 3115 3115 3115 3115 3114 3114 3113 3112 3111 3111 3111 3111 3111 3112 3113 3115 3116 3116 3117 3118 3120 3120 3121 3122 3123 3125 3126 3128 3129 3131 3133 3135 3136 3138 3139 3140 3142 3143 3144 3146 3147 3147 3148 3149 3150 3150 3150 3151 3152 3153 3154 3154
3118 3117 3116 3114 3113 3113 3112 3113 3113 3113 3113 3112 3113 3113 3112 3112 3112 3111 3110 3110 3109 3109 3109 3109 3110 3111 3112 3113 3114 3115 3116 3118 3119 3120 3121 3122 3123 3124 3125 3126 3128 3130 3132 3133 3135 3136 3137 3139 3141 3142 3143 3144 3145 3146 3147 3147 3148 3149 3149 3150 3151 3152 3152
3117 3115 3114 3113 3111 3110 3110 3110 3110 3110 3110 3110 3110 3110 3110 3109 3109 3109 3108 3107 3107 3107 3107 3107 3107 3108 3109 3110 3112 3113 3114 3116 3117 3118 3120 3120 3120 3121 3122 3123 3126 3128 3129 3131 3133 3134 3134 3136 3138 3139 3140 3142 3142 3143 3144 3145 3146 3147 3147 3147 3149 3150 3150
3115 3114 3113 3111 3110 3109 3108 3108 3107 3107 3107 3107 3107 3107 3107 3106 3106 3106 3105 3105 3104 3105 3105 3105 3105 3106 3107 3108 3109 3110 3112 3113 3114 3116 3117 3117 3118 3119 3121 3122 3123 3125 3127 3128 3130 3130 3131 3133 3135 3136 3137 3139 3140 3140 3141 3142 3144 3144 3144 3145 3146 3147 3148
3114 3113 3111 3110 3108 3107 3106 3105 3105 3104 3104 3104 3104 3104 3104 3104 3103 3102 3102 3102 3101 3101 3101 3102 3103 3104 3105 3106 3106 3108 3109 3110 3111 3113 3115 3115 3116 3116 3118 3119 3121 3122 3123 3124 3126 3127 3129 3130 3132 3133 3135 3136 3136 3137 3138 3139 3140 3141 3142 3143 3144 3145 3146
3112 3111 3110 3108 3107 3106 3105 3104 3103 3102 3102 3101 3101 3102 3102 3101 3100 3099 3098 3098 3097 3096 3097 3099 3100 3101 3102 3103 3104 3105 3106 3107 3109 3110 3112 3114 3114 3114 3115 3117 3119 3119 3119 3121 3123 3124 3126 3127 3129 3130 3131 3132 3133 3134 3135 3136 3137 3138 3139 3140 3141 3142 3143
3110 3109 3108 3107 3105 3104 3103 3102 3101 3100 3100 3099 3099 3099 3099 3098 3098 3097 3095 3094 3093 3092 3093 3095 3096 3098 3099 3100 3101 3102 3102 3103 3106 3108 3109 3111 3111 3111 3113 3115 3116 3116 3117 3119 3120 3122 3123 3124 3125 3126 3127 3129 3129 3130 3131 3133 3134 3135 3136 3136 3137 3139 3140
3107 3106 3105 3104 3103 3102 3101 3100 3099 3098 3097 3097 3096 3096 3096 3096 3095 3094 3092 3091 3090 3090 3091 3092 3093 3094 3096 3097 3098 3099 3099 3100 3102 3104 3106 3107 3108 3109 3111 3113 3114 3114 3115 3116 3118 3119 3120 3120 3121 3122 3124 3125 3126 3127 3128 3129 3130 3130 3132 3133 3134 3135 3137
3104 3103 3102 3102 3101 3100 3099 3098 3097 3096 3095 3094 3093 3092 3092 3092 3092 3091 3089 3087 3087 3088 3089 3090 3090 3091 3093 3094 3095 3096 3096 3097 3100 3101 3102 3104 3106 3107 3109 3110 3111 3112 3113 3115 3115 3116 3118 3119 3119 3120 3121 3122 3124 3124 3125 3126 3126 3127 3128 3130 3131 3132 3134
3102 3100 3099 3099 3098 3097 3096 3095 3094 3093 3092 3091 3090 3089 3088 3088 3088 3087 3086 3084 3084 3085 3087 3087 3086 3087 3090 3091 3093 3093 3093 3095 3097 3098 3099 3101 3103 3105 3106 3107 3108 3109 3112 3113 3113 3113 3115 3117 3118 3119 3119 3119 3121 3122 3123 3124 3123 3124 3126 3127 3127 3129 3131
3099 3098 3097 3096 3095 3094 3093 3092 3091 3090 3089 3087 3086 3085 3084 3084 3083 3083 3082 3081 3081 3082 3083 3084 3083 3085 3087 3089 3090 3090 3090 3091 3092 3094 3096 3098 3100 3102 3103 3104 3105 3106 3108 3109 3110 3111 3112 3114 3115 3116 3117 3117 3119 3120 3121 3122 3121 3121 3123 3124 3124 3127 3129
3097 3095 3094 3093 3091 3090 3090 3089 3088 3086 3085 3084 3083 3081 3081 3080 3079 3079 3078 3078 3078 3079 3080 3081 3082 3083 3084 3085 3086 3086 3086 3086 3087 3090 3093 3095 3097 3098 3100 3100 3102 3103 3105 3106 3107 3108 3109 3111 3112 3113 3114 3115 3116 3117 3118 3119 3119 3120 3121 3121 3122 3125 3127
3094 3093 3091 3090 3088 3087 3086 3085 3084 3082 3081 3080 3079 3078 3077 3076 3075 3075 3074 3074 3075 3075 3076 3078 3080 3080 3080 3081 3082 3082 3081 3082 3083 3086 3090 3092 3093 3095 3097 3097 3099 3101 3102 3103 3104 3105 3106 3108 3109 3110 3111 3111 3112 3114 3115 3116 3117 3118 3119 3119 3119 3122 3125
3091 3089 3088 3086 3085 3083 3082 3080 3079 3078 3077 3076 3074 3074 3073 3072 3071 3071 3070 3070 3071 3071 3072 3074 3076 3077 3077 3078 3077 3077 3077 3078 3080 3083 3086 3089 3090 3092 3094 3095 3096 3097 3099 3099 3100 3102 3103 3105 3106 3107 3108 3108 3110 3111 3112 3113 3114 3115 3116 3117 3116 3119 3122
3088 3086 3085 3083 3081 3079 3078 3076 3074 3073 3072 3071 3070 3069 3069 3068 3067 3066 3066 3066 3066 3066 3067 3069 3071 3072 3073 3074 3074 3074 3074 3075 3077 3080 3083 3086 3088 3090 3091 3092 3092 3094 3095 3096 3097 3099 3100 3101 3103 3103 3104 3105 3107 3108 3109 3110 3111 3112 3113 3114 3114 3116 3118
3085 3083 3081 3080 3078 3076 3074 3072 3070 3069 3067 3066 3065 3064 3064 3063 3063 3062 3061 3061 3061 3062 3063 3065 3066 3067 3069 3070 3071 3072 3072 3073 3075 3078 3080 3083 3085 3087 3088 3088 3088 3089 3091 3092 3094 3096 3097 3098 3099 3100 3101 3102 3104 3105 3106 3107 3108 3109 3110 3111 3112 3114 3114
3082 3080 3078 3076 3075 3073 3071 3069 3067 3065 3063 3062 3061 3060 3059 3058 3057 3057 3057 3056 3057 3057 3059 3060 3062 3063 3065 3066 3067 3068 3069 3071 3072 3075 3077 3079 3081 3083 3085 3086 3086 3086 3088 3089 3091 3092 3093 3094 3095 3096 3098 3099 3100 3101 3103 3103 3105 3106 3107 3108 3110 3111 3111
3080 3078 3076 3074 3072 3070 3068 3066 3065 3063 3061 3059 3057 3055 3054 3053 3052 3052 3052 3052 3052 3053 3055 3056 3057 3058 3060 3061 3063 3064 3066 3068 3070 3071 3074 3076 3078 3079 3081 3083 3084 3085 3086 3087 3088 3089 3090 3091 3092 3093 3094 3096 3097 3098 3099 3100 3101 3103 3104 3105 3106 3107 3108
3078 3076 3074 3071 3069 3067 3065 3063 3061 3060 3058 3056 3054 3052 3050 3049 3048 3047 3047 3048 3049 3049 3051 3052 3053 3054 3055 3057 3058 3060 3063 3065 3066 3068 3070 3072 3073 3075 3078 3079 3081 3082 3084 3084 3085 3086 3086 3087 3088 3090 3091 3092 3093 3095 3096 3097 3098 3099 3100 3102 3103 3104 3105
3077 3075 3072 3070 3067 3065 3063 3061 3058 3056 3055 3053 3051 3049 3047 3045 3044 3044 3044 3044 3045 3046 3047 3048 3049 3050 3052 3053 3054 3057 3059 3061 3062 3063 3065 3067 3069 3071 3075 3077 3078 3078 3080 3081 3081 3082 3083 3084 3085 3086 3088 3089 3090 3091 3093 3094 3095 3096 3097 3098 3100 3101 3102
3075 3073 3071 3069 3066 3064 3061 3059 3057 3054 3052 3050 3048 3047 3045 3043 3042 3042 3041 3042 3042 3043 3044 3045 3046 3047 3048 3050 3051 3053 3054 3056 3057 3059 3061 3063 3065 3068 3072 3074 3074 3074 3076 3077 3078 3079 3080 3081 3083 3084 3085 3087 3088 3089 3090 3091 3092 3093 3094 3096 3097 3098 3099
3073 3071 3069 3068 3066 3063 3061 3058 3056 3053 3051 3049 3048 3046 3044 3043 3041 3040 3040 3040 3040 3040 3041 3041 3042 3043 3044 3046 3048 3049 3050 3053 3055 3056 3058 3060 3062 3065 3068 3070 3070 3070 3072 3074 3075 3076 3077 3078 3080 3081 3083 3084 3085 3086 3087 3088 3089 3091 3092 3093 3094 3095 3096
3072 3070 3068 3066 3064 3063 3060 3058 3056 3054 3052 3049 3048 3046 3045 3043 3041 3040 3039 3038 3038 3038 3038 3038 3038 3040 3042 3043 3044 3045 3048 3051 3052 3052 3055 3057 3059 3061 3064 3065 3065 3067 3069 3070 3072 3073 3074 3075 3076 3077 3079 3080 3082 3083 3084 3085 3087 3087 3088 3089 3090 3092 3093
3072 3069 3067 3065 3063 3062 3060 3058 3056 3054 3052 3050 3048 3046 3045 3043 3042 3040 3039 3038 3037 3037 3037 3037 3038 3039 3040 3039 3040 3043 3046 3047 3048 3050 3052 3054 3055 3057 3059 3060 3062 3064 3066 3067 3068 3070 3071 3071 3072 3073 3074 3076 3077 3079 3080 3082 3083 3084 3085 3086 3086 3087 3089